Terminal Aerodrome Forecast
Issued by NWS

Current Version | Previous Version | Graphics & Text | Print | Product List | Glossary On
Versions: 1 2 3 4 5 6 7 8 9 10 11 12 13 14 15 16 17 18 19 20 21 22 23
000
FTUS41 KPBZ 131600 AAB
TAFHLG
TAF AMD
KHLG 131609Z 1316/1412 28008KT P6SM SCT025 OVC035
      TEMPO 1316/1318 BKN025
     FM131800 31010KT P6SM BKN050
     FM140500 VRB05KT P6SM SCT025=

USA.gov is the U.S. government's official web portal to all federal, state and local government web resources and services.